Location: Munkebjergskolens Observatorium
(55.3864°N, 10.3987°E)
Time: 04:58:06
(UTC+02:00)

CAS-6 - Pass Details

Date: 04 April 2023
Orbit: 610 x 632 km, 97.9° (Epoch: 31 May)

Event Time Altitude Azimuth Distance (km) Brightness Sun altitude
Exits shadow 00:13:10 31° 275° (W) 1,095 ? -27.5°
Drops below altitude 10° 00:16:45 10° 329° (NNW) 2,015 ? -27.7°
Sets 00:19:10 0° 340° (NNW) 2,932 ? -27.8°
